QPF
0.01 0.01 0.01 0.00 0.01 0.01 0.01 0.02 0.02 0.02 0.01 0.01 0.02 0.02 0.03 0.03 0.03 0.02 0.02 0.03 0.04 0.05 0.06 0.06 0.04 0.03 0.04 0.05 0.06 0.07 0.06 0.06 0.07 0.08 0.07 0.07 0.07 0.08 0.07 0.06 0.06 0.04 0.04 0.04
0.01 0.01 0.00 0.00 0.00 0.01 0.01 0.01 0.02 0.01 0.02 0.02 0.02 0.02 0.02 0.04 0.04 0.02 0.02 0.04 0.05 0.06 0.07 0.06 0.04 0.03 0.03 0.04 0.04 0.05 0.06 0.05 0.06 0.07 0.06 0.05 0.05 0.06 0.07 0.07 0.08 0.06 0.05 0.04
0.01 0.00 0.00 0.00 0.01 0.01 0.01 0.01 0.01 0.02 0.02 0.02 0.02 0.03 0.02 0.03 0.04 0.03 0.03 0.04 0.06 0.08 0.07 0.05 0.03 0.03 0.04 0.04 0.04 0.05 0.06 0.06 0.05 0.06 0.07 0.05 0.04 0.04 0.05 0.06 0.08 0.09 0.06 0.05
0.00 0.00 0.01 0.01 0.01 0.01 0.01 0.01 0.01 0.01 0.02 0.03 0.02 0.04 0.03 0.03 0.04 0.03 0.04 0.05 0.06 0.08 0.08 0.06 0.04 0.04 0.05 0.05 0.05 0.05 0.05 0.06 0.05 0.06 0.07 0.05 0.03 0.03 0.03 0.04 0.06 0.08 0.08 0.06
0.01 0.01 0.01 0.01 0.01 0.01 0.01 0.00 0.01 0.02 0.02 0.02 0.02 0.03 0.03 0.04 0.04 0.03 0.03 0.05 0.06 0.06 0.07 0.06 0.04 0.05 0.06 0.06 0.05 0.07 0.07 0.07 0.08 0.06 0.06 0.04 0.03 0.02 0.02 0.03 0.05 0.07 0.08 0.08
0.01 0.01 0.01 0.01 0.01 0.01 0.01 0.01 0.01 0.02 0.03 0.02 0.01 0.02 0.02 0.04 0.04 0.03 0.04 0.06 0.06 0.06 0.07 0.06 0.05 0.06 0.08 0.07 0.04 0.06 0.10 0.09 0.10 0.09 0.08 0.06 0.03 0.02 0.02 0.03 0.04 0.07 0.08 0.08
0.02 0.01 0.01 0.01 0.01 0.01 0.01 0.02 0.03 0.04 0.05 0.02 0.01 0.01 0.01 0.02 0.03 0.04 0.05 0.07 0.06 0.06 0.09 0.07 0.05 0.06 0.07 0.07 0.05 0.05 0.09 0.12 0.12 0.12 0.11 0.08 0.05 0.03 0.03 0.03 0.04 0.07 0.08 0.08
0.03 0.02 0.02 0.01 0.01 0.02 0.01 0.02 0.03 0.03 0.02 0.01 0.01 0.01 0.01 0.01 0.03 0.03 0.03 0.05 0.06 0.05 0.08 0.07 0.06 0.08 0.08 0.06 0.05 0.05 0.07 0.11 0.14 0.14 0.14 0.11 0.08 0.05 0.04 0.03 0.04 0.06 0.07 0.07
0.02 0.01 0.01 0.00 0.01 0.01 0.02 0.03 0.04 0.03 0.01 0.01 0.01 0.01 0.02 0.01 0.02 0.02 0.01 0.03 0.05 0.04 0.06 0.05 0.05 0.07 0.07 0.06 0.06 0.06 0.07 0.09 0.12 0.13 0.16 0.16 0.11 0.08 0.07 0.05 0.05 0.05 0.06 0.07
0.01 0.01 0.00 0.00 0.00 0.01 0.01 0.02 0.02 0.03 0.02 0.01 0.01 0.01 0.01 0.01 0.02 0.01 0.01 0.03 0.05 0.05 0.06 0.06 0.05 0.05 0.06 0.07 0.07 0.07 0.08 0.08 0.09 0.10 0.12 0.16 0.16 0.11 0.10 0.11 0.09 0.08 0.08 0.10
0.01 0.01 0.01 0.00 0.00 0.00 0.00 0.01 0.01 0.01 0.01 0.02 0.01 0.01 0.01 0.01 0.01 0.01 0.02 0.03 0.05 0.05 0.06 0.07 0.06 0.06 0.07 0.08 0.08 0.10 0.11 0.09 0.08 0.09 0.10 0.12 0.15 0.14 0.11 0.12 0.12 0.11 0.10 0.10
0.01 0.01 0.01 0.00 0.00 0.00 0.00 0.01 0.01 0.01 0.01 0.01 0.01 0.01 0.01 0.01 0.01 0.01 0.02 0.02 0.05 0.06 0.05 0.08 0.08 0.07 0.06 0.07 0.09 0.09 0.08 0.08 0.09 0.12 0.12 0.12 0.13 0.13 0.12 0.10 0.11 0.10 0.09 0.09
0.01 0.01 0.01 0.01 0.00 0.00 0.00 0.00 0.01 0.01 0.01 0.01 0.01 0.01 0.01 0.00 0.00 0.01 0.01 0.02 0.03 0.05 0.04 0.07 0.07 0.05 0.06 0.07 0.09 0.08 0.08 0.09 0.09 0.10 0.12 0.12 0.14 0.14 0.12 0.09 0.09 0.09 0.08 0.08
0.01 0.01 0.00 0.00 0.00 0.00 0.00 0.00 0.00 0.01 0.02 0.02 0.02 0.02 0.01 0.01 0.00 0.01 0.01 0.01 0.02 0.02 0.03 0.04 0.04 0.05 0.05 0.06 0.07 0.07 0.08 0.11 0.11 0.11 0.11 0.12 0.11 0.12 0.11 0.08 0.08 0.08 0.08 0.08
0.01 0.01 0.00 0.00 0.00 0.00 0.01 0.01 0.00 0.01 0.01 0.02 0.02 0.02 0.02 0.01 0.01 0.01 0.01 0.01 0.02 0.02 0.03 0.03 0.03 0.04 0.05 0.05 0.05 0.05 0.06 0.09 0.12 0.13 0.11 0.11 0.10 0.10 0.10 0.08 0.07 0.07 0.08 0.08
0.01 0.01 0.01 0.00 0.00 0.00 0.01 0.01 0.00 0.00 0.01 0.01 0.01 0.01 0.01 0.01 0.01 0.00 0.01 0.01 0.02 0.02 0.03 0.03 0.03 0.03 0.03 0.04 0.04 0.05 0.06 0.07 0.08 0.11 0.11 0.10 0.10 0.10 0.09 0.07 0.07 0.07 0.08 0.08
0.02 0.02 0.02 0.01 0.00 0.00 0.01 0.00 0.00 0.00 0.00 0.01 0.01 0.01 0.01 0.01 0.01 0.01 0.01 0.01 0.01 0.02 0.02 0.03 0.03 0.02 0.03 0.03 0.04 0.06 0.06 0.07 0.07 0.08 0.09 0.09 0.09 0.10 0.10 0.08 0.08 0.07 0.07 0.08
0.02 0.02 0.03 0.02 0.01 0.01 0.00 0.00 0.00 0.00 0.00 0.00 0.01 0.00 0.00 0.01 0.01 0.01 0.01 0.01 0.01 0.01 0.02 0.02 0.02 0.03 0.03 0.03 0.04 0.06 0.06 0.05 0.07 0.07 0.07 0.07 0.07 0.07 0.09 0.09 0.08 0.08 0.08 0.07
0.02 0.03 0.04 0.03 0.02 0.01 0.00 0.00 0.00 0.00 0.00 0.00 0.00 0.00 0.00 0.00 0.00 0.00 0.00 0.00 0.01 0.02 0.02 0.02 0.02 0.03 0.03 0.03 0.04 0.06 0.06 0.05 0.06 0.07 0.06 0.06 0.06 0.06 0.06 0.07 0.07 0.07 0.08 0.06
0.02 0.03 0.04 0.04 0.03 0.01 0.00 0.00 0.00 0.01 0.01 0.00 0.00 0.01 0.01 0.01 0.01 0.01 0.00 0.00 0.01 0.01 0.01 0.02 0.02 0.02 0.03 0.03 0.03 0.05 0.05 0.06 0.07 0.06 0.06 0.06 0.05 0.05 0.05 0.06 0.07 0.07 0.07 0.06
0.02 0.03 0.03 0.03 0.03 0.01 0.01 0.00 0.00 0.01 0.01 0.01 0.01 0.01 0.01 0.01 0.01 0.01 0.00 0.00 0.01 0.01 0.01 0.01 0.02 0.02 0.02 0.03 0.03 0.04 0.05 0.07 0.07 0.06 0.06 0.05 0.05 0.05 0.05 0.05 0.05 0.06 0.06 0.06
0.01 0.02 0.02 0.02 0.02 0.01 0.01 0.01 0.02 0.02 0.01 0.01 0.01 0.01 0.01 0.01 0.01 0.00 0.00 0.00 0.01 0.01 0.01 0.01 0.02 0.02 0.02 0.03 0.03 0.04 0.04 0.05 0.06 0.06 0.06 0.05 0.05 0.04 0.04 0.05 0.05 0.06 0.05 0.04
0.00 0.01 0.02 0.01 0.01 0.00 0.00 0.01 0.01 0.01 0.01 0.01 0.01 0.01 0.01 0.01 0.01 0.00 0.00 0.00 0.01 0.01 0.01 0.01 0.02 0.02 0.03 0.03 0.03 0.03 0.04 0.04 0.04 0.05 0.06 0.06 0.05 0.04 0.04 0.04 0.05 0.05 0.04 0.04
0.00 0.01 0.01 0.01 0.00 0.00 0.00 0.00 0.01 0.01 0.01 0.01 0.01 0.01 0.01 0.01 0.01 0.01 0.01 0.00 0.00 0.00 0.01 0.01 0.02 0.02 0.02 0.03 0.03 0.03 0.03 0.03 0.03 0.03 0.04 0.04 0.03 0.04 0.04 0.04 0.04 0.05 0.05 0.04
0.00 0.01 0.01 0.00 0.00 0.00 0.00 0.00 0.01 0.01 0.01 0.01 0.01 0.01 0.01 0.01 0.01 0.01 0.01 0.00 0.00 0.00 0.01 0.01 0.02 0.03 0.02 0.02 0.02 0.03 0.03 0.03 0.03 0.03 0.03 0.03 0.03 0.03 0.03 0.03 0.04 0.05 0.05 0.05
0.00 0.01 0.01 0.00 0.00 0.00 0.00 0.00 0.00 0.00 0.00 0.00 0.01 0.01 0.01 0.01 0.01 0.01 0.01 0.00 0.00 0.00 0.01 0.01 0.02 0.03 0.03 0.02 0.02 0.03 0.03 0.03 0.03 0.02 0.03 0.03 0.03 0.03 0.02 0.03 0.04 0.06 0.06 0.05
MSLP
1020.68 1020.28 1019.83 1019.32 1018.77 1018.22 1017.71 1017.28 1016.98 1016.81 1016.78 1016.85 1016.98 1017.12 1017.19 1017.17 1017.01 1016.72 1016.31 1015.82 1015.27 1014.70 1014.13 1013.57 1013.02 1012.45 1011.86 1011.25 1010.60 1009.92 1009.22 1008.53 1007.83 1007.15 1006.49 1005.85 1005.24 1004.67 1004.17 1003.79 1003.58 1003.57 1003.81 1004.32
1021.36 1020.95 1020.47 1019.93 1019.34 1018.74 1018.17 1017.67 1017.29 1017.04 1016.92 1016.91 1016.96 1017.03 1017.06 1016.99 1016.80 1016.49 1016.06 1015.54 1014.96 1014.36 1013.77 1013.19 1012.64 1012.11 1011.59 1011.07 1010.53 1009.96 1009.37 1008.73 1008.06 1007.35 1006.62 1005.88 1005.14 1004.45 1003.86 1003.42 1003.18 1003.18 1003.44 1003.99
1022.15 1021.71 1021.19 1020.60 1019.95 1019.28 1018.63 1018.04 1017.55 1017.18 1016.94 1016.82 1016.79 1016.78 1016.77 1016.69 1016.51 1016.21 1015.80 1015.29 1014.70 1014.07 1013.45 1012.84 1012.27 1011.75 1011.27 1010.82 1010.38 1009.91 1009.41 1008.84 1008.19 1007.47 1006.67 1005.84 1004.99 1004.20 1003.52 1003.02 1002.76 1002.77 1003.08 1003.68
1023.02 1022.56 1022.00 1021.36 1020.66 1019.92 1019.17 1018.47 1017.85 1017.34 1016.96 1016.71 1016.56 1016.49 1016.43 1016.35 1016.20 1015.95 1015.58 1015.10 1014.53 1013.89 1013.23 1012.59 1011.98 1011.44 1010.96 1010.54 1010.15 1009.76 1009.32 1008.80 1008.18 1007.44 1006.60 1005.69 1004.76 1003.88 1003.14 1002.61 1002.35 1002.40 1002.77 1003.43
1023.95 1023.47 1022.90 1022.24 1021.51 1020.71 1019.89 1019.09 1018.33 1017.67 1017.14 1016.73 1016.46 1016.28 1016.18 1016.09 1015.96 1015.76 1015.45 1015.01 1014.47 1013.83 1013.14 1012.45 1011.79 1011.20 1010.69 1010.25 1009.87 1009.50 1009.10 1008.61 1008.00 1007.25 1006.38 1005.41 1004.43 1003.51 1002.75 1002.22 1001.99 1002.10 1002.54 1003.29
1024.86 1024.41 1023.86 1023.23 1022.51 1021.71 1020.86 1019.98 1019.12 1018.32 1017.62 1017.05 1016.62 1016.32 1016.12 1015.99 1015.87 1015.69 1015.42 1015.03 1014.51 1013.88 1013.17 1012.42 1011.70 1011.03 1010.46 1009.97 1009.56 1009.17 1008.76 1008.27 1007.65 1006.89 1006.00 1005.02 1004.02 1003.09 1002.35 1001.86 1001.70 1001.90 1002.44 1003.28
1025.73 1025.33 1024.86 1024.31 1023.67 1022.93 1022.10 1021.21 1020.28 1019.36 1018.51 1017.77 1017.16 1016.70 1016.37 1016.14 1015.96 1015.77 1015.51 1015.14 1014.64 1014.01 1013.27 1012.48 1011.69 1010.95 1010.29 1009.72 1009.24 1008.79 1008.34 1007.82 1007.18 1006.40 1005.50 1004.52 1003.54 1002.65 1001.96 1001.56 1001.49 1001.80 1002.45 1003.39
1026.49 1026.19 1025.85 1025.44 1024.94 1024.33 1023.60 1022.75 1021.80 1020.82 1019.84 1018.92 1018.12 1017.46 1016.95 1016.57 1016.27 1016.01 1015.71 1015.32 1014.81 1014.17 1013.41 1012.58 1011.73 1010.91 1010.16 1009.50 1008.92 1008.39 1007.87 1007.29 1006.61 1005.82 1004.92 1003.97 1003.03 1002.21 1001.61 1001.32 1001.37 1001.79 1002.56 1003.60
1027.15 1026.97 1026.78 1026.56 1026.25 1025.83 1025.25 1024.51 1023.61 1022.60 1021.52 1020.45 1019.45 1018.57 1017.83 1017.25 1016.78 1016.38 1015.98 1015.53 1014.98 1014.32 1013.54 1012.68 1011.78 1010.89 1010.06 1009.30 1008.62 1007.99 1007.38 1006.73 1006.00 1005.19 1004.30 1003.39 1002.52 1001.80 1001.32 1001.14 1001.32 1001.87 1002.73 1003.86
1027.70 1027.65 1027.63 1027.61 1027.52 1027.31 1026.93 1026.34 1025.53 1024.53 1023.40 1022.21 1021.02 1019.91 1018.93 1018.11 1017.42 1016.83 1016.29 1015.74 1015.13 1014.43 1013.62 1012.74 1011.80 1010.86 1009.96 1009.11 1008.33 1007.60 1006.89 1006.16 1005.38 1004.55 1003.68 1002.82 1002.05 1001.44 1001.08 1001.03 1001.34 1001.98 1002.93 1004.12
1028.19 1028.24 1028.37 1028.53 1028.64 1028.64 1028.46 1028.03 1027.34 1026.40 1025.25 1023.97 1022.63 1021.32 1020.11 1019.04 1018.11 1017.32 1016.61 1015.93 1015.23 1014.47 1013.64 1012.73 1011.77 1010.79 1009.82 1008.90 1008.02 1007.19 1006.38 1005.58 1004.76 1003.92 1003.08 1002.29 1001.61 1001.13 1000.90 1000.99 1001.40 1002.13 1003.14 1004.35
1028.65 1028.78 1029.01 1029.29 1029.55 1029.72 1029.70 1029.42 1028.85 1027.98 1026.86 1025.53 1024.09 1022.62 1021.21 1019.93 1018.78 1017.78 1016.90 1016.08 1015.28 1014.46 1013.58 1012.64 1011.65 1010.63 1009.61 1008.62 1007.65 1006.73 1005.84 1004.97 1004.12 1003.28 1002.50 1001.79 1001.23 1000.88 1000.79 1000.99 1001.50 1002.30 1003.34 1004.55
1029.14 1029.29 1029.55 1029.88 1030.22 1030.48 1030.56 1030.39 1029.92 1029.13 1028.04 1026.71 1025.22 1023.67 1022.13 1020.68 1019.37 1018.20 1017.16 1016.21 1015.31 1014.41 1013.47 1012.49 1011.45 1010.38 1009.29 1008.22 1007.17 1006.17 1005.21 1004.29 1003.43 1002.63 1001.91 1001.32 1000.89 1000.68 1000.73 1001.06 1001.66 1002.51 1003.56 1004.74
1029.69 1029.80 1030.03 1030.34 1030.66 1030.91 1031.02 1030.90 1030.49 1029.76 1028.73 1027.44 1025.97 1024.39 1022.80 1021.27 1019.85 1018.56 1017.40 1016.34 1015.33 1014.34 1013.32 1012.26 1011.15 1010.00 1008.83 1007.67 1006.54 1005.45 1004.44 1003.50 1002.65 1001.91 1001.30 1000.85 1000.58 1000.54 1000.74 1001.19 1001.88 1002.77 1003.83 1004.99
1030.29 1030.34 1030.48 1030.68 1030.91 1031.08 1031.14 1031.00 1030.61 1029.92 1028.96 1027.74 1026.33 1024.80 1023.24 1021.70 1020.25 1018.90 1017.66 1016.50 1015.39 1014.29 1013.16 1011.99 1010.77 1009.50 1008.22 1006.95 1005.72 1004.56 1003.51 1002.57 1001.77 1001.13 1000.66 1000.37 1000.29 1000.44 1000.81 1001.40 1002.18 1003.13 1004.19 1005.33
1030.92 1030.89 1030.91 1030.97 1031.04 1031.08 1031.02 1030.81 1030.39 1029.73 1028.83 1027.71 1026.41 1024.99 1023.52 1022.04 1020.62 1019.26 1017.97 1016.73 1015.52 1014.29 1013.03 1011.70 1010.33 1008.91 1007.48 1006.08 1004.74 1003.52 1002.44 1001.53 1000.81 1000.29 999.99 999.91 1000.04 1000.40 1000.96 1001.70 1002.59 1003.60 1004.68 1005.80
1031.55 1031.44 1031.34 1031.24 1031.13 1031.00 1030.80 1030.48 1030.01 1029.37 1028.53 1027.52 1026.36 1025.08 1023.75 1022.39 1021.04 1019.71 1018.40 1017.09 1015.76 1014.39 1012.95 1011.44 1009.87 1008.27 1006.67 1005.12 1003.68 1002.38 1001.29 1000.43 999.81 999.45 999.35 999.49 999.86 1000.44 1001.20 1002.11 1003.12 1004.20 1005.32 1006.44
1032.11 1031.95 1031.74 1031.50 1031.23 1030.94 1030.59 1030.17 1029.64 1029.00 1028.23 1027.33 1026.32 1025.22 1024.04 1022.82 1021.56 1020.28 1018.96 1017.59 1016.15 1014.61 1012.98 1011.27 1009.48 1007.67 1005.89 1004.19 1002.64 1001.29 1000.21 999.41 998.91 998.72 998.83 999.20 999.81 1000.61 1001.58 1002.65 1003.78 1004.95 1006.11 1007.24
1032.55 1032.37 1032.09 1031.75 1031.36 1030.93 1030.47 1029.96 1029.40 1028.77 1028.07 1027.29 1026.42 1025.48 1024.47 1023.38 1022.23 1021.00 1019.67 1018.23 1016.67 1014.98 1013.16 1011.24 1009.24 1007.24 1005.28 1003.45 1001.81 1000.42 999.36 998.63 998.26 998.24 998.54 999.13 999.96 1000.98 1002.12 1003.34 1004.59 1005.83 1007.03 1008.18
1032.80 1032.64 1032.34 1031.95 1031.49 1030.99 1030.46 1029.90 1029.33 1028.73 1028.10 1027.43 1026.70 1025.91 1025.05 1024.09 1023.02 1021.83 1020.50 1019.00 1017.34 1015.50 1013.52 1011.41 1009.24 1007.07 1004.98 1003.05 1001.35 999.95 998.92 998.28 998.02 998.15 998.62 999.39 1000.40 1001.58 1002.87 1004.21 1005.55 1006.84 1008.08 1009.24
1032.85 1032.71 1032.44 1032.05 1031.58 1031.06 1030.51 1029.96 1029.41 1028.86 1028.31 1027.74 1027.14 1026.48 1025.73 1024.88 1023.88 1022.73 1021.39 1019.85 1018.10 1016.17 1014.06 1011.83 1009.55 1007.28 1005.11 1003.13 1001.42 1000.04 999.06 998.49 998.33 998.57 999.17 1000.06 1001.19 1002.48 1003.86 1005.26 1006.65 1007.98 1009.22 1010.39
1032.67 1032.58 1032.35 1032.00 1031.56 1031.08 1030.57 1030.06 1029.57 1029.09 1028.62 1028.15 1027.65 1027.09 1026.44 1025.67 1024.73 1023.60 1022.27 1020.71 1018.93 1016.95 1014.79 1012.52 1010.20 1007.91 1005.74 1003.78 1002.10 1000.77 999.85 999.35 999.27 999.58 1000.24 1001.19 1002.36 1003.68 1005.08 1006.50 1007.89 1009.21 1010.45 1011.60
1032.31 1032.24 1032.05 1031.76 1031.40 1030.99 1030.56 1030.13 1029.72 1029.33 1028.95 1028.57 1028.15 1027.67 1027.09 1026.37 1025.48 1024.39 1023.07 1021.53 1019.76 1017.80 1015.67 1013.44 1011.17 1008.96 1006.87 1004.99 1003.40 1002.15 1001.30 1000.86 1000.81 1001.14 1001.81 1002.74 1003.89 1005.17 1006.53 1007.91 1009.25 1010.54 1011.74 1012.85
1031.79 1031.74 1031.59 1031.36 1031.08 1030.77 1030.44 1030.12 1029.82 1029.52 1029.23 1028.92 1028.57 1028.15 1027.62 1026.93 1026.08 1025.02 1023.74 1022.25 1020.55 1018.67 1016.65 1014.54 1012.41 1010.35 1008.41 1006.68 1005.22 1004.09 1003.31 1002.91 1002.88 1003.19 1003.80 1004.66 1005.71 1006.90 1008.16 1009.45 1010.71 1011.92 1013.06 1014.13
1031.20 1031.14 1031.02 1030.86 1030.67 1030.46 1030.25 1030.05 1029.84 1029.64 1029.43 1029.19 1028.89 1028.50 1027.99 1027.33 1026.50 1025.48 1024.27 1022.85 1021.26 1019.51 1017.66 1015.74 1013.82 1011.96 1010.23 1008.70 1007.40 1006.39 1005.70 1005.33 1005.29 1005.54 1006.06 1006.80 1007.72 1008.76 1009.89 1011.05 1012.20 1013.33 1014.40 1015.41
1030.62 1030.54 1030.44 1030.34 1030.24 1030.15 1030.05 1029.96 1029.86 1029.75 1029.60 1029.40 1029.13 1028.75 1028.25 1027.60 1026.79 1025.81 1024.65 1023.33 1021.87 1020.29 1018.63 1016.93 1015.26 1013.64 1012.15 1010.83 1009.72 1008.84 1008.23 1007.89 1007.82 1008.00 1008.41 1009.01 1009.77 1010.66 1011.64 1012.66 1013.70 1014.73 1015.73 1016.69
Thickness
5568 5570 5567 5565 5562 5562 5561 5558 5558 5557 5552 5547 5551 5552 5552 5548 5545 5545 5545 5545 5545 5546 5547 5548 5549 5550 5552 5554 5555 5558 5561 5562 5565 5568 5570 5573 5575 5576 5577 5578 5580 5581 5582 5582
5565 5562 5558 5555 5553 5553 5553 5551 5552 5551 5546 5543 5545 5549 5551 5545 5542 5542 5541 5541 5541 5541 5542 5542 5543 5544 5546 5547 5549 5551 5552 5553 5556 5557 5559 5562 5564 5566 5568 5569 5570 5572 5572 5572
5560 5555 5548 5548 5548 5547 5547 5546 5544 5541 5539 5536 5534 5550 5548 5544 5540 5538 5536 5536 5536 5536 5536 5536 5536 5536 5538 5539 5541 5542 5543 5544 5546 5547 5550 5552 5553 5556 5559 5560 5561 5562 5563 5563
5549 5544 5542 5543 5543 5541 5543 5539 5535 5532 5533 5540 5532 5545 5553 5543 5539 5536 5533 5531 5531 5530 5529 5530 5530 5530 5531 5531 5532 5533 5534 5536 5537 5538 5540 5543 5546 5549 5551 5551 5552 5553 5553 5554
5542 5537 5537 5538 5537 5534 5536 5531 5530 5529 5529 5529 5532 5531 5552 5541 5537 5535 5531 5528 5527 5524 5524 5525 5524 5524 5524 5524 5524 5525 5527 5528 5529 5531 5533 5535 5537 5540 5541 5541 5542 5543 5544 5544
5532 5529 5529 5530 5528 5526 5526 5527 5527 5525 5526 5527 5532 5531 5547 5542 5534 5531 5528 5525 5522 5520 5520 5519 5518 5517 5517 5517 5516 5517 5519 5521 5522 5524 5526 5527 5529 5531 5532 5533 5534 5535 5535 5536
5530 5528 5523 5522 5524 5523 5523 5526 5530 5531 5531 5538 5526 5526 5540 5537 5528 5524 5521 5518 5516 5515 5514 5513 5512 5512 5511 5511 5511 5511 5513 5515 5517 5518 5519 5520 5521 5523 5525 5526 5526 5527 5528 5529
5529 5532 5522 5518 5519 5518 5519 5520 5520 5524 5533 5537 5523 5527 5540 5528 5521 5518 5515 5512 5510 5508 5507 5506 5505 5505 5505 5504 5504 5505 5507 5509 5511 5511 5512 5512 5513 5516 5517 5518 5518 5519 5521 5522
5525 5525 5514 5510 5510 5513 5512 5514 5509 5509 5509 5510 5529 5529 5529 5522 5517 5513 5510 5508 5505 5503 5501 5500 5499 5498 5498 5498 5498 5499 5501 5503 5504 5505 5505 5506 5507 5509 5510 5510 5511 5512 5513 5514
5514 5511 5511 5505 5505 5502 5507 5506 5502 5503 5507 5518 5529 5528 5530 5521 5515 5510 5506 5503 5500 5498 5496 5495 5494 5492 5492 5491 5491 5492 5494 5495 5497 5498 5499 5501 5502 5503 5503 5504 5505 5506 5506 5507
5505 5503 5504 5503 5502 5506 5497 5495 5497 5500 5499 5507 5518 5531 5523 5514 5508 5504 5502 5498 5494 5492 5490 5489 5488 5486 5485 5485 5486 5486 5488 5489 5491 5493 5494 5495 5496 5496 5497 5498 5498 5499 5499 5500
5498 5501 5501 5502 5493 5489 5495 5496 5495 5496 5494 5492 5503 5518 5510 5504 5501 5496 5495 5492 5489 5486 5484 5483 5481 5480 5480 5480 5480 5481 5482 5483 5484 5486 5488 5489 5489 5489 5491 5492 5492 5492 5493 5493
5490 5490 5499 5506 5493 5482 5483 5484 5483 5482 5487 5492 5498 5513 5503 5498 5496 5491 5488 5486 5484 5480 5479 5477 5475 5474 5474 5474 5474 5474 5475 5475 5477 5479 5481 5482 5482 5483 5484 5485 5485 5485 5485 5486
5486 5482 5491 5506 5507 5489 5481 5478 5474 5476 5485 5493 5498 5506 5503 5495 5492 5489 5485 5482 5479 5476 5473 5471 5470 5469 5468 5468 5468 5468 5469 5469 5470 5472 5474 5474 5475 5476 5477 5477 5477 5478 5478 5479
5478 5478 5476 5479 5479 5477 5477 5478 5473 5473 5483 5488 5499 5495 5497 5492 5486 5482 5480 5476 5473 5472 5470 5467 5465 5464 5463 5463 5462 5462 5463 5463 5464 5466 5467 5468 5469 5469 5469 5469 5469 5470 5471 5471
5467 5469 5467 5471 5469 5467 5469 5474 5473 5472 5476 5479 5481 5485 5489 5483 5479 5477 5474 5469 5468 5466 5464 5462 5460 5458 5457 5457 5456 5456 5457 5457 5458 5459 5460 5461 5462 5462 5462 5462 5462 5462 5463 5463
5461 5457 5465 5479 5464 5463 5478 5480 5473 5472 5474 5476 5481 5487 5482 5476 5473 5471 5468 5464 5462 5461 5458 5455 5454 5452 5452 5451 5451 5452 5451 5451 5451 5452 5454 5454 5454 5454 5454 5454 5454 5454 5455 5455
5450 5450 5453 5462 5459 5470 5494 5475 5473 5472 5474 5472 5474 5476 5473 5470 5466 5464 5460 5457 5457 5455 5453 5450 5448 5447 5447 5446 5446 5446 5446 5446 5446 5447 5448 5448 5447 5447 5447 5447 5446 5446 5447 5447
5445 5445 5448 5451 5462 5478 5484 5470 5463 5461 5471 5469 5467 5467 5464 5458 5459 5463 5457 5452 5449 5448 5446 5444 5443 5441 5440 5440 5440 5441 5441 5441 5442 5442 5442 5441 5440 5441 5440 5439 5438 5438 5438 5439
5431 5433 5441 5442 5454 5471 5485 5464 5457 5457 5468 5467 5461 5460 5456 5451 5462 5467 5453 5446 5443 5441 5439 5437 5436 5435 5435 5435 5435 5436 5436 5437 5436 5435 5434 5434 5433 5433 5433 5432 5431 5431 5431 5431
5429 5429 5433 5439 5448 5470 5468 5451 5450 5461 5472 5460 5455 5453 5450 5450 5453 5449 5443 5439 5437 5434 5432 5431 5430 5430 5430 5429 5429 5430 5431 5431 5429 5427 5427 5427 5426 5426 5425 5424 5424 5423 5424 5424
5441 5440 5434 5435 5442 5463 5455 5446 5452 5462 5455 5451 5449 5446 5443 5442 5438 5436 5435 5433 5430 5427 5426 5425 5424 5424 5423 5423 5423 5424 5424 5423 5421 5420 5420 5420 5419 5419 5418 5417 5416 5416 5416 5416
5436 5444 5447 5446 5461 5459 5448 5449 5448 5444 5444 5444 5442 5439 5436 5433 5432 5429 5428 5426 5423 5421 5419 5418 5418 5417 5416 5416 5416 5416 5415 5415 5414 5413 5412 5412 5411 5410 5409 5409 5408 5408 5408 5408
5433 5423 5428 5433 5449 5448 5443 5440 5438 5436 5436 5436 5433 5431 5428 5427 5425 5423 5421 5418 5416 5413 5412 5411 5410 5410 5410 5409 5408 5408 5407 5407 5406 5406 5405 5403 5402 5401 5400 5400 5400 5400 5399 5400
5439 5422 5424 5430 5442 5440 5442 5437 5436 5431 5429 5427 5425 5423 5420 5419 5418 5415 5413 5411 5408 5405 5404 5404 5403 5404 5403 5402 5401 5400 5399 5399 5399 5398 5396 5395 5394 5393 5392 5391 5390 5390 5390 5390
5432 5429 5432 5446 5446 5441 5446 5439 5432 5428 5425 5423 5420 5418 5415 5412 5410 5407 5405 5402 5400 5398 5397 5397 5396 5396 5395 5394 5394 5392 5392 5391 5390 5390 5389 5387 5386 5385 5384 5383 5382 5381 5381 5381